Hourly Data Report for September 25, 2017

All times are specified in Local Standard Time (LST). Add 1 hour to adjust for Daylight Saving Time where and when it is observed.

COMOX A
BRITISH COLUMBIA

49°43'00.000" N
124°54'00.000" W
25.60 m
1021830
71893
YQQ

Download Data

Hourly Data (September 2017)
Hourly Data Report for September 25, 2017
Temp Definition
°C
Dew Point Temp Definition
°C
Rel Hum Definition
%
Wind Dir Definition
10's deg

Wind Spd Definition
km/h
Visibility Definition
km
Stn Press Definition
kPa
Hmdx Definition


Wind Chill Definition


Weather Definition


TIME
00:00 13.8 11.9 88   0 32.2 101.49     Rain Showers
01:00 13.3 11.9 91   0 32.2 101.49     Rain Showers
02:00 13.2 11.9 92 32 6 32.2 101.46     Rain Showers
03:00 13.4 11.9 91   0 32.2 101.43     Rain Showers
04:00 13.3 11.9 91   0 32.2 101.45     Rain Showers
05:00 13.1 11.8 92   0 24.1 101.42     Rain
06:00 13.6 11.9 89 14 11 19.3 101.44     Rain
07:00 13.5 11.9 90 15 11 12.9 101.46     Rain
08:00 13.5 11.9 90 15 17 12.9 101.48     Rain
09:00 13.8 11.9 88 16 15 24.1 101.50     Rain
10:00 14.2 11.9 86 15 17 24.1 101.51     Rain Showers
11:00 14.7 13.7 94 17 17 19.3 101.54     Rain
12:00 14.5 13.5 94 16 17 16.1 101.59     Rain
13:00 14.5 13.7 95 16 15 12.9 101.61     Rain
14:00 15.5 13.9 90 17 15 24.1 101.58     Cloudy
15:00 15.4 13.8 90 17 15 24.1 101.60     Cloudy
16:00 15.6 13.3 86 16 15 24.1 101.60     Cloudy
17:00 15.4 13.5 88 14 7 32.2 101.64     Cloudy
18:00 15.0 13.7 92 13 6 32.2 101.63     Cloudy
19:00 14.6 13.3 92 11 4 32.2 101.66     Cloudy
20:00 14.5 13.4 93   0 32.2 101.70     Cloudy
21:00 14.3 13.3 94   0 32.2 101.75     Mostly Cloudy
22:00 14.2 13.3 94 7 4 32.2 101.78     Cloudy
23:00 14.3 13.4 94   0 32.2 101.78     Cloudy

Notes on Data Quality.

Legend

  • E = Estimated
  • M = Missing
  • NA = Not Available
  • ‡ = Partner data that is not subject to review by the National Climate Archives
Date modified: